User: anonymous   Login
Location: Hyde Park
(33.9806°N, 118.3306°W)
Time: 06:31:11
(UTC+00:00)
Language:

Cosmos 2278 Rocket - Orbit

View from above orbital plane
View from above orbital plane
View from above satellite
View from above satellite

Ground track
Ground track

The orbit data is extracted from the following two-line orbital elements,

1 23088U 94023B   24281.80877889  .00000139  00000-0  96735-4 0  9998
2 23088  70.9995  78.3979 0004117 327.2019  32.8847 14.14894542573102
Epoch (UTC): 07 October 2024 19:24:38
Eccentricity: 0.0004117
inclination: 70.9995°
perigee height: 840 km
apogee height: 845 km
right ascension of ascending node: 78.3979°
argument of perigee: 327.2019°
revolutions per day: 14.14894542
mean anomaly at epoch: 32.8847°
orbit number at epoch: 57310

The dashed part of the orbit path shows where the satellite is in the earth's shadow,  

DLR